TimeAKDT,TemperatureF,Dew PointF,Humidity,Sea Level PressureIn,VisibilityMPH,Wind Direction,Wind SpeedMPH,Gust SpeedMPH,PrecipitationIn,Events,Conditions,WindDirDegrees,DateUTC
12:53 AM,30.9,28.0,89,29.74,10.0,Calm,Calm,-,N/A,,Scattered Clouds,0,2013-08-28 08:53:00
1:53 AM,30.9,28.0,89,29.73,10.0,Calm,Calm,-,N/A,,Partly Cloudy,0,2013-08-28 09:53:00
2:53 AM,34.0,30.9,89,29.72,10.0,Calm,Calm,-,N/A,,Overcast,0,2013-08-28 10:53:00
3:53 AM,32.0,30.0,92,29.72,10.0,South,3.5,-,N/A,,Mostly Cloudy,180,2013-08-28 11:53:00
4:53 AM,32.0,30.0,92,29.71,10.0,Calm,Calm,-,N/A,,Scattered Clouds,0,2013-08-28 12:53:00
5:53 AM,36.0,33.1,89,29.70,10.0,Calm,Calm,-,N/A,,Mostly Cloudy,0,2013-08-28 13:53:00
6:53 AM,39.9,35.1,83,29.70,10.0,Calm,Calm,-,N/A,,Overcast,0,2013-08-28 14:53:00
7:53 AM,50.0,37.9,63,29.69,10.0,Calm,Calm,-,N/A,,Overcast,0,2013-08-28 15:53:00
8:53 AM,53.1,36.0,52,29.70,10.0,Variable,4.6,-,N/A,,Mostly Cloudy,0,2013-08-28 16:53:00
9:53 AM,48.9,43.0,80,29.71,10.0,East,4.6,-,0.00,Rain,Light Rain,100,2013-08-28 17:53:00
10:53 AM,52.0,44.1,74,29.71,10.0,Variable,3.5,-,0.00,,Overcast,0,2013-08-28 18:53:00
11:53 AM,53.1,45.0,74,29.72,10.0,Calm,Calm,-,N/A,,Overcast,0,2013-08-28 19:53:00
12:53 PM,57.0,37.9,49,29.71,10.0,Variable,4.6,-,N/A,,Mostly Cloudy,0,2013-08-28 20:53:00
1:53 PM,59.0,37.9,46,29.71,10.0,Variable,6.9,16.1,N/A,,Mostly Cloudy,0,2013-08-28 21:53:00
2:53 PM,62.1,39.0,43,29.70,10.0,SE,11.5,20.7,N/A,,Partly Cloudy,140,2013-08-28 22:53:00
3:53 PM,62.1,39.9,44,29.70,10.0,Variable,6.9,19.6,N/A,,Clear,0,2013-08-28 23:53:00
4:53 PM,60.1,41.0,49,29.70,10.0,SE,6.9,-,N/A,,Mostly Cloudy,130,2013-08-29 00:53:00
5:53 PM,60.1,42.1,51,29.70,10.0,Variable,4.6,-,N/A,,Overcast,0,2013-08-29 01:53:00
6:53 PM,57.9,42.1,56,29.70,10.0,ESE,8.1,-,N/A,,Clear,120,2013-08-29 02:53:00
7:53 PM,57.0,44.1,62,29.69,10.0,Variable,3.5,-,N/A,,Partly Cloudy,0,2013-08-29 03:53:00
8:53 PM,55.0,45.0,69,29.70,10.0,Calm,Calm,-,N/A,,Overcast,0,2013-08-29 04:53:00
9:53 PM,54.0,46.0,75,29.70,10.0,ESE,4.6,-,0.00,Rain,Light Rain,120,2013-08-29 05:53:00
10:53 PM,50.0,46.9,89,29.70,10.0,Calm,Calm,-,0.01,,Mostly Cloudy,0,2013-08-29 06:53:00
11:53 PM,46.9,45.0,93,29.70,10.0,Calm,Calm,-,N/A,,Mostly Cloudy,0,2013-08-29 07:53:00